STARLINK-32337, 61643

Orbit data source: Space-Track

STARLINK-32337, 61643 is a payload satellite owned by SpaceX/Seattle (US) in LEO that was launched on Wed, 23 Oct 2024 UTC via an FALCON 9 launch vehicle from the Air Force Eastern Test Range (AFETR). Payload-class satellites include a variety of spacecraft equipped with specific instruments for various scientific and technological missions. These include communications satellites like Starlink; space stations such as the ISS; scientific satellites like the Hubble; Earth observation satellites from companies like Planet Labs, Umbra, and HawkEye 360; GPS; miniature CubeSats for education and research; and military/defense satellites.

Loading next visibility...
Identifier
61643, 2024-191Y
Orbit
LEO
Country
Flag of USUS
Related business
Manufacturer
SpaceX/Seattle
Mission
Operational Commercial Communications
Bus & Motor
STARLINK V2M, Unknown motor
Mass
730 kg wet, ~700 kg dry
Launch date (UTC)
2024-10-23 (1 year ago)
Launch vehicle
FALCON 9
Launch site
Air Force Eastern Test Range (AFETR)
Object type
Payload
Rocket body
Debris
Shape & HBR
Box + 2 Pan, 17.7 m
Radar Cross Section
33.884 m², Large (>1 m²)

Expand to show TLE details & history
Last TLE update: 1 day ago

TLE from 1 day ago
0 STARLINK-32337
1 61643U 24191Y   25302.69694844  .00000911  00000-0  42609-4 0  9995
2 61643  43.0088 174.2009 0001766 260.9687  99.0965 15.27589014 58267
Epoch: 2025-10-29T16:43Z
TLE epoch observation values (Epoch: 2025-10-29T16:43:36.345Z)
Latitude
-0°
Longitude
-114.96691°
Altitude
482.99 km
Speed
7.626 km/s
True Right ascension
11h 36m 48s
True Declination
0° 00' 00"
Sunlit
Object was in daylight at epoch
Visualization orbit readout
Latitude
Unknown
Longitude
Unknown
Altitude
Unknown
Speed
Unknown
Apparent Right ascension
Unknown
Apparent Declination
Unknown
Sunlit
N/A
Visualization observer readout
Local Sidereal Time
20:04:20
Azimuth
Unknown
Elevation
Unknown
Doppler factor
Unknown
Orbital elements
Apogee altitude
486.178 km
Perigee altitude
483.754 km
Semi-major axis
6,863.103 km
Eccentricity
0.00018
Inclination
43.0088°
RAAN
174.2009°
Arg. of periapsis
260.9687°
True anomaly
99.11648°
Mean anomaly
99.0965°
Eccentric anomaly
99.10649°
Mean motion
3.81735 °/min
Orbital period
94.31 mins
BSTAR
0.000042609
Loading maneuver chart data...
Computing Atmospheric mass density...
Loading historical data...
Loading historical data...
Loading historical data...
Loading historical data...
Loading historical data...
Loading historical data...
Loading historical data...

Documentation

Showing up to 5 results
|